Location: Bouillancy
(49.1149°N, 2.9308°E)
Time: 08:27:14
(UTC+00:00)

COSMO-SKYMED 1 - Pass Details

Date: 30 September 2020
Orbit: 621 x 623 km, 97.9° (Epoch: 29 October)

Event Time Altitude Azimuth Distance (km) Brightness Sun altitude
Rises 17:55:01 0° 15° (NNE) 2,916 5.9 -5.2°
Reaches altitude 10° 17:57:14 10° 17° (NNE) 2,004 5.0 -5.5°
Maximum altitude 18:01:35 74° 102° (ESE) 653 2.5 -6.3°
Drops below altitude 10° 18:05:55 10° 189° (S) 1,987 5.2 -7.0°
Sets 18:08:06 0° 191° (S) 2,888 6.1 -7.3°
